Regional Weather Roundup
Issued by NWS Upton, NY

Current Version | Previous Version | Graphics & Text | Print | Product List | Glossary Off
Versions: 1 2 3 4 5 6 7 8 9 10 11 12 13 14 15 16 17 18 19 20 21 22 23 24 25 26 27

000
ASUS41 KOKX 291408
RWROKX

REGIONAL WEATHER ROUNDUP
NATIONAL WEATHER SERVICE NEW YORK NY
1000 AM EDT SAT APR 29 2017

NOTE: "FAIR" INDICATES FEW OR NO CLOUDS BELOW 12,000 FEET WITH NO
SIGNIFICANT WEATHER AND/OR OBSTRUCTIONS TO VISIBILITY.

NYZ071-072-176-178-NJZ106-104-291500-
NEW YORK CITY METRO AREA

CITY           SKY/WX    TMP DP  RH WIND       PRES   REMARKS
Central Park   MOSUNNY   72  65  78 VRB3      30.05R
Wall St Helipt CLOUDY    70  63  78 W8        30.05S
Bronx Bot Gard   N/A     72  63  73 SW10      30.02F
LaGuardia APRT CLOUDY    75  64  68 SW10      30.02R
Kennedy INTL   CLOUDY    68  63  84 SW12      30.05R
Breezy Point     N/A     63 N/A N/A W3          N/A
Newark/Liberty CLOUDY    74  66  76 SW13      30.03S
Teterboro      CLOUDY    75  66  73 SW13      30.01R
$$

NYZ177-179-078>081-291500-
LONG ISLAND NEW YORK

CITY           SKY/WX    TMP DP  RH WIND       PRES   REMARKS
Jones Beach      N/A     54 N/A N/A W8          N/A
Matinecock PT    N/A     64 N/A N/A SW13        N/A
Farmingdale    CLOUDY    64  60  87 W15       30.04R
MacArthur/ISP  CLOUDY    63  61  93 SW14G23   30.03R
Shirley        CLOUDY    63  61  93 SW10G22   30.04R
Mt Sinai Harb    N/A     68 N/A N/A SW7G15      N/A
Westhampton    CLOUDY    64  60  87 SW14G23   30.04R
East Hampton   PTSUNNY   64  61  88 S9        30.01R
Montauk          N/A     58  57  97 SE7       30.02R
$$

NYZ052-065-067-291500-
HUDSON VALLEY

CITY           SKY/WX    TMP DP  RH WIND       PRES   REMARKS
White Plains   CLOUDY    72  63  73 VRB6      30.02R
Larchmont Harb   N/A     64 N/A N/A S15         N/A
Croton O-T Hud   N/A     68 N/A N/A SE6G12      N/A
Newburgh       PTSUNNY   68  61  77 W12       30.02R
Montgomery     CLOUDY    69  59  70 SW8       30.00R
Poughkeepsie   CLOUDY    71  56  58 SW8       29.99R
Albany         CLOUDY    72  50  45 W9        29.97R
$$

NJZ001-105-106-008-010-013-015-019>022-104-291500-
NEW JERSEY

CITY           SKY/WX    TMP DP  RH WIND       PRES   REMARKS
Newark/Liberty CLOUDY    74  66  76 SW13      30.03S
Teterboro      CLOUDY    75  66  73 SW13      30.01R
Caldwell       MOSUNNY   74  64  71 SW9G16    30.03R
Somerville     PTSUNNY   73  67  81 VRB6      30.03R
Linden           N/A     73  66  77 W8        30.04S
Perth Amboy      N/A     70 N/A N/A W12G17      N/A
Sussex         CLOUDY    68  62  81 SW7       30.04R
Andover          N/A     69  61  75 SW7       30.05R
Trenton        CLOUDY    74  69  85 SW6       30.05S
Millville      CLOUDY    76  70  82 W17       30.08S
Atlantic City  CLOUDY    78  67  68 W13       30.07S
Wrightstown    CLOUDY    75  68  78 W13       30.04S
Toms River     PTSUNNY   79  67  66 W12G20    30.06F
Belmar         PTSUNNY   74  69  85 W9        30.06S
$$

PAZ047>061-062-071-291500-
EASTERN PENNSYLVANIA

CITY           SKY/WX    TMP DP  RH WIND       PRES   REMARKS
Philadelphia   CLOUDY    74  66  76 SW7       30.06S
Allentown      CLOUDY    68  61  78 NW3       30.05S
Scranton       CLOUDY    64  60  87 SW12      30.06R
$$

CTZ002-004>006-009-010-012-RIZ004-006-007-MAZ004-011-015-291500-
SOUTHERN NEW ENGLAND
 IN CT

CITY           SKY/WX    TMP DP  RH WIND       PRES   REMARKS
Bradley INTL   PTSUNNY   74  50  42 SW3       29.96S
Hartford       PTSUNNY   73  56  54 S7        29.96S
Danbury        CLOUDY    72  60  66 W9        30.01R
Wtrbury/Oxford PTSUNNY   72  54  53 SW6       30.02R
Bridgeport     CLOUDY    64  57  78 SW8       30.01R
Meriden        PTSUNNY   73  57  57 S8        29.99R
New Haven      PTSUNNY   60  55  83 SW12      30.01R
Chester          N/A     73  61  64 S10       30.00R
Groton         CLOUDY    57  54  89 S9        29.98R
Wilimantic     CLOUDY    75  56  51 CALM      29.97F

 IN RI

CITY           SKY/WX    TMP DP  RH WIND       PRES   REMARKS
Providence     CLOUDY    63  56  78 SE6       29.98R
Block Island   MOSUNNY   63  60  90 SW13      30.00R
Westerly       CLOUDY    63  59  87 S10       30.00R
 IN MA

CITY           SKY/WX    TMP DP  RH WIND       PRES   REMARKS
Boston         CLOUDY    71  54  54 S8        29.95F
Worcester      MOSUNNY   72  48  42 SW13      29.98F
Westfield      PTSUNNY   70  54  56 SW3       29.96S
Provincetown   MOSUNNY   61  54  77 S10       29.98R
Nantucket      FOG       58  56  93 SW17      30.00F VSB 3/4
$$

ANZ330-335-338-340-345-350-353-355-291500-
COASTAL MARINE OBSERVATIONS


STATION/POSITION TIME  SKY/WX   TEMP    WIND        PRES    VSBY  WAVE
                                AIR SEA DIR/SP/G                  HT/PER
                 (UTC)          (F)     (DEG/KT/KT) (MB)    (MI)  (FT/S)
NY HARB ENTRANCE 1250            55 51  190/ 14/ 17 1016.8          3/ 8
20 S FIRE ISLAND 1350            54 49  230/ 16/ 17 1016.3          4/ 8
GREAT SOUTH BAY  NOT AVBL
23 SSW MONTAUK P 1250            53 47              1015.3          4/ 8
15 E BARNEGAT LI 1330               54                N/A           4/ 7
HUDSON CANYON    1250            54 49  220/ 17/ 21 1016.7          5/ 7
KINGS POINT      1348            67 54  230/  9/ 11 1016.6
EXECUTION ROCKS  NOT AVBL
CENTRAL LI SOUND 1315            53     170/ 10/ 12   N/A           0
EASTERN LI SOUND NOT AVBL
ROBBINS REEF     1342            70     240/ 16/ 19 1017.3
$$


>>>>>>>>>>>>>>>>>>>>>>>>>>>> KEY <<<<<<<<<<<<<<<<<<<<<<<<<<<
>                                                          <
>     SKY/WX - Sky Condition/Present Weather               <
>     TMP    - Temperature in Fahrenheit                   <
>     DP     - Dew Point in Fahrenheit                     <
>     RH     - Relative Humidity in Percent                <
>     WIND   - Direction (from) and Speed in MPH           <
>     PRES   - Mean Sea Level Pressure (inches of Hg)      <
>     WCI    - Wind Chill Index                            <
>     VSB    - VISIBILITY IN MILES                         <
>     HX     - HEAT INDEX                                  <
>     TC     - TEMPERATURE IN CELSIUS                      <
>     VRB    - VARIABLE WIND DIRECTION                     <
>                                                          <
>>>>>>>>>>>>>>>>>>>>>>>>>>>> KEY <<<<<<<<<<<<<<<<<<<<<<<<<<<




USA.gov is the U.S. government's official web portal to all federal, state and local government web resources and services.